Zurück zum Katalog

STARLINK-30203

AktivKommunikationVLEO
NORAD 57498·PAYLOAD·🇺🇸 United States

Gestartet Aug 7, 2023 von Cape Canaveral Space Force Station

Loading…

Nächste Überflüge (nächste 24 Stunden)

TLE

AktuellSource: CelesTrak SupGP

Epoche: Sep 15, 2026, 01:46 UTC

1 57498C 23113D   26258.07409722 -.00096708  00000+0 -35023-2 0  2581
2 57498  43.0048  26.2935 0002162 268.0457  27.0891 15.27629663    19

Verfolge STARLINK-30203 in Echtzeit mit AllMySat

Download on the App Store